| time (UTC) | temp C | wind direction | speed KPH | gust KPH | rain 1hr cm | rain 24hr cm | rain mn cm | humidity % | barometer mb |
| 20260831072104 | 16 | 0 | 1.6 | 0.0 | 0.00 | 0.00 | 0.00 | 100 | 1015.0 |
| 20260831072040 | 16 | 260 | 11.3 | 0.0 | 0.00 | 0.00 | 0.00 | 93 | |
| 20260831071002 | 16 | 240 | 9.7 | 0.0 | 0.00 | 0.00 | 0.00 | 100 | 1015.0 |
| 20260831065031 | 16 | 280 | 19.3 | 0.0 | 0.00 | 0.00 | 0.00 | 100 | 1015.0 |
| 20260831063703 | 17 | 250 | 35.4 | 56.3 | 0.00 | 0.00 | 0.00 | 82 | 1015.0 |
| 20260831063102 | 18 | 250 | 25.7 | 0.0 | 0.00 | 0.00 | 0.00 | 82 | 1015.0 |
| 20260831061955 | 17 | 60 | 3.2 | 0.0 | 0.00 | 0.00 | 0.00 | 82 | |
| 20260831061702 | 18 | 0 | 3.2 | 0.0 | 0.00 | 0.00 | 0.00 | 77 | 1013.0 |
| 20260831053103 | 17 | 0 | 0.0 | 0.0 | 0.00 | 0.00 | 0.00 | 82 | 1013.0 |
| 20260831052108 | 17 | 200 | 3.2 | 0.0 | 0.00 | 0.00 | 0.00 | 82 | |
| 20260831050103 | 17 | 200 | 3.2 | 0.0 | 0.00 | 0.00 | 0.00 | 82 | 1013.0 |
| 20260831043102 | 17 | 190 | 8.0 | 0.0 | 0.00 | 0.00 | 0.00 | 82 | 1014.0 |
| 20260831042154 | 17 | 190 | 8.0 | 0.0 | 0.00 | 0.00 | 0.00 | 82 | |
| 20260831040103 | 17 | 180 | 8.0 | 0.0 | 0.00 | 0.00 | 0.00 | 82 | 1014.0 |
| 20260831033103 | 17 | 200 | 4.8 | 0.0 | 0.00 | 0.00 | 0.00 | 82 | 1014.0 |
| 20260831031852 | 17 | 190 | 8.0 | 0.0 | 0.00 | 0.00 | 0.00 | 82 | |
| 20260831023102 | 17 | 190 | 4.8 | 0.0 | 0.00 | 0.00 | 0.00 | 88 | 1014.0 |
| 20260831021951 | 17 | 200 | 8.0 | 0.0 | 0.00 | 0.00 | 0.00 | 77 | |
| 20260831020103 | 17 | 200 | 8.0 | 0.0 | 0.00 | 0.00 | 0.00 | 82 | 1014.0 |
| 20260831013102 | 17 | 180 | 4.8 | 0.0 | 0.00 | 0.00 | 0.00 | 77 | 1015.0 |
| 20260831011950 | 17 | 200 | 8.0 | 0.0 | 0.00 | 0.00 | 0.00 | 77 | |
| 20260831003103 | 17 | 190 | 9.7 | 0.0 | 0.00 | 0.00 | 0.00 | 77 | 1015.0 |
| 20260831001852 | 17 | 190 | 11.3 | 0.0 | 0.00 | 0.00 | 0.00 | 77 | |
| 20260831000103 | 18 | 200 | 9.7 | 0.0 | 0.00 | 0.00 | 0.00 | 72 | 1015.0 |
| 20260830233102 | 17 | 210 | 8.0 | 0.0 | 0.00 | 0.00 | 0.00 | 77 | 1015.0 |
| 20260830232052 | 18 | 180 | 8.0 | 0.0 | 0.00 | 0.00 | 0.00 | 72 | |
| 20260830230103 | 18 | 170 | 9.7 | 0.0 | 0.00 | 0.00 | 0.00 | 72 | 1015.0 |
| 20260830223103 | 18 | 180 | 4.8 | 0.0 | 0.00 | 0.00 | 0.00 | 72 | 1015.0 |
| 20260830222053 | 18 | 170 | 8.0 | 0.0 | 0.00 | 0.00 | 0.00 | 72 | |
| 20260830213102 | 18 | 180 | 4.8 | 0.0 | 0.00 | 0.00 | 0.00 | 72 | 1015.0 |
| 20260830211854 | 21 | 210 | 8.0 | 0.0 | 0.00 | 0.00 | 0.00 | 60 | |
| 20260830203102 | 20 | 240 | 9.7 | 0.0 | 0.00 | 0.00 | 0.00 | 68 | 1015.0 |
| 20260830202051 | 22 | 220 | 11.3 | 0.0 | 0.00 | 0.00 | 0.00 | 56 | |
| 20260830200212 | 21 | 220 | 11.3 | 0.0 | 0.00 | 0.00 | 0.00 | 64 | 1015.0 |
| 20260830193103 | 21 | 230 | 9.7 | 0.0 | 0.00 | 0.00 | 0.00 | 64 | 1015.0 |
| 20260830191951 | 23 | 240 | 8.0 | 0.0 | 0.00 | 0.00 | 0.00 | 50 | |
| 20260830190211 | 22 | 230 | 9.7 | 0.0 | 0.00 | 0.00 | 0.00 | 60 | 1015.0 |
| 20260830183103 | 22 | 220 | 9.7 | 0.0 | 0.00 | 0.00 | 0.00 | 53 | 1014.0 |
| 20260830181853 | 23 | 210 | 11.3 | 0.0 | 0.00 | 0.00 | 0.00 | 50 | |
| 20260830173103 | 23 | 210 | 12.9 | 0.0 | 0.00 | 0.00 | 0.00 | 50 | 1014.0 |
| 20260830172051 | 25 | 210 | 14.5 | 0.0 | 0.00 | 0.00 | 0.00 | 44 | |
| 20260830163103 | 25 | 250 | 19.3 | 0.0 | 0.00 | 0.00 | 0.00 | 44 | 1014.0 |
| 20260830161952 | 26 | 250 | 14.5 | 0.0 | 0.00 | 0.00 | 0.00 | 39 | |
| 20260830160104 | 26 | 230 | 16.1 | 0.0 | 0.00 | 0.00 | 0.00 | 44 | 1014.0 |
| 20260830153102 | 26 | 220 | 16.1 | 0.0 | 0.00 | 0.00 | 0.00 | 44 | 1014.0 |
| 20260830152606 | 26 | 220 | 14.5 | 0.0 | 0.00 | 0.00 | 0.00 | 39 | |
| 20260830151851 | 26 | 220 | 14.5 | 0.0 | 0.00 | 0.00 | 0.00 | 39 | |
| 20260830150211 | 26 | 220 | 20.9 | 0.0 | 0.00 | 0.00 | 0.00 | 41 | 1014.0 |
| 20260830143103 | 26 | 220 | 22.5 | 0.0 | 0.00 | 0.00 | 0.00 | 44 | 1014.0 |
| 20260830141951 | 26 | 230 | 22.5 | 0.0 | 0.00 | 0.00 | 0.00 | 41 | |
| 20260830133103 | 26 | 220 | 24.1 | 0.0 | 0.00 | 0.00 | 0.00 | 44 | 1014.0 |
| 20260830131951 | 26 | 210 | 25.7 | 0.0 | 0.00 | 0.00 | 0.00 | 41 | |
| 20260830123102 | 26 | 230 | 22.5 | 0.0 | 0.00 | 0.00 | 0.00 | 50 | 1014.0 |
| 20260830121909 | 25 | 220 | 25.7 | 0.0 | 0.00 | 0.00 | 0.00 | 44 | |
| 20260830120104 | 26 | 230 | 22.5 | 0.0 | 0.00 | 0.00 | 0.00 | 47 | 1014.0 |
| 20260830113103 | 25 | 230 | 27.4 | 0.0 | 0.00 | 0.00 | 0.00 | 47 | 1015.0 |
| 20260830111951 | 26 | 230 | 25.7 | 0.0 | 0.00 | 0.00 | 0.00 | 44 | |
| 20260830103103 | 25 | 210 | 25.7 | 0.0 | 0.00 | 0.00 | 0.00 | 50 | 1015.0 |
| 20260830102153 | 26 | 220 | 25.7 | 0.0 | 0.00 | 0.00 | 0.00 | 47 | |
| 20260830093103 | 23 | 210 | 20.9 | 0.0 | 0.00 | 0.00 | 0.00 | 53 | 1015.0 |
| 20260830091853 | 23 | 220 | 22.5 | 0.0 | 0.00 | 0.00 | 0.00 | 50 | |
| 20260830090211 | 23 | 220 | 22.5 | 0.0 | 0.00 | 0.00 | 0.00 | 53 | 1015.0 |
| 20260830083102 | 22 | 220 | 19.3 | 0.0 | 0.00 | 0.00 | 0.00 | 56 | 1015.0 |
| 20260830081953 | 22 | 230 | 19.3 | 0.0 | 0.00 | 0.00 | 0.00 | 56 | |
| 20260830073102 | 21 | 210 | 14.5 | 0.0 | 0.00 | 0.00 | 0.00 | 64 | 1015.0 |